When you browse on this site, cookies collect data to enhance your experience and personalize the content and advertising you see.
Visit our Privacy Policy to learn more. By continuing to use the site, you agree to this use of cookies and data.

Previsão horária em Kapustino

Hoje, 13 Agosto, Quinta-feira

Tempo Temperatura Precipitação Vento Pressão Humidade
00:00 +9°C° 0 mm 0 m/s 759 mmHg 81%
01:00 +9°C° 0 mm 0 m/s 759 mmHg 83%
02:00 +8°C° 0 mm 0 m/s 759 mmHg 84%
03:00 +8°C° 0 mm 0 m/s 759 mmHg 83%
04:00 +9°C° 0 mm 0 m/s 759 mmHg 82%
05:00 +9°C° 0 mm 0 m/s 759 mmHg 80%
06:00 +11°C° 0 mm 0 m/s 759 mmHg 76%
07:00 +12°C° 0 mm 0 m/s 759 mmHg 71%
08:00 +14°C° 0 mm 0 m/s 759 mmHg 66%
09:00 +15°C° 0 mm 0 m/s 759 mmHg 62%
10:00 +17°C° 0 mm 0 m/s 759 mmHg 58%
11:00 +19°C° 0 mm 0 m/s 758 mmHg 54%
12:00 +18°C° 0.1 mm 0 m/s 758 mmHg 56%
13:00 +20°C° 0.1 mm 1 m/s 758 mmHg 57%
14:00 +19°C° 0.1 mm 1 m/s 758 mmHg 58%
15:00 +19°C° 0 mm 1 m/s 758 mmHg 60%
16:00 +19°C° 0 mm 1 m/s 758 mmHg 62%
17:00 +17°C° 0 mm 0 m/s 758 mmHg 65%
18:00 +16°C° 0 mm 0 m/s 758 mmHg 69%
19:00 +14°C° 0 mm 0 m/s 758 mmHg 73%
20:00 +13°C° 0 mm 0 m/s 758 mmHg 77%
21:00 +13°C° 0 mm 0 m/s 758 mmHg 77%
22:00 +13°C° 0 mm 0 m/s 758 mmHg 78%
23:00 +12°C° 0 mm 0 m/s 758 mmHg 79%

Amanhã, 14 Agosto, Sexta-feira

Tempo Temperatura Precipitação Vento Pressão Humidade
00:00 +12°C° 0 mm 0 m/s 758 mmHg 80%
01:00 +13°C° 0 mm 1 m/s 758 mmHg 81%
02:00 +13°C° 0 mm 1 m/s 758 mmHg 82%
03:00 +13°C° 0 mm 1 m/s 758 mmHg 82%
04:00 +13°C° 0 mm 1 m/s 758 mmHg 82%
05:00 +13°C° 0 mm 1 m/s 758 mmHg 83%
06:00 +14°C° 0 mm 1 m/s 758 mmHg 78%
07:00 +15°C° 0 mm 1 m/s 758 mmHg 73%
08:00 +18°C° 0 mm 1 m/s 758 mmHg 68%
09:00 +19°C° 0 mm 1 m/s 758 mmHg 65%
10:00 +20°C° 0 mm 1 m/s 758 mmHg 62%
11:00 +21°C° 0 mm 1 m/s 758 mmHg 58%
12:00 +21°C° 0 mm 1 m/s 758 mmHg 58%
13:00 +21°C° 0 mm 2 m/s 757 mmHg 58%
14:00 +21°C° 0 mm 2 m/s 757 mmHg 57%
15:00 +21°C° 0 mm 2 m/s 757 mmHg 59%
16:00 +22°C° 0 mm 1 m/s 757 mmHg 61%
17:00 +22°C° 0 mm 1 m/s 757 mmHg 63%
18:00 +20°C° 0 mm 1 m/s 757 mmHg 71%
19:00 +18°C° 0 mm 1 m/s 757 mmHg 79%
20:00 +16°C° 0 mm 1 m/s 757 mmHg 86%
21:00 +15°C° 0 mm 1 m/s 757 mmHg 89%
22:00 +15°C° 0 mm 1 m/s 757 mmHg 92%
23:00 +14°C° 0 mm 2 m/s 757 mmHg 95%

Depois de amanhã, 15 Agosto, Sábado

Tempo Temperatura Precipitação Vento Pressão Humidade
00:00 +14°C° 0 mm 1 m/s 757 mmHg 96%
01:00 +14°C° 0 mm 1 m/s 757 mmHg 97%
02:00 +13°C° 0 mm 1 m/s 757 mmHg 97%
03:00 +13°C° 0 mm 1 m/s 757 mmHg 98%
04:00 +13°C° 0 mm 1 m/s 757 mmHg 98%
05:00 +13°C° 0 mm 1 m/s 757 mmHg 98%
06:00 +14°C° 0 mm 1 m/s 757 mmHg 92%
07:00 +16°C° 0 mm 2 m/s 757 mmHg 87%
08:00 +18°C° 0 mm 2 m/s 757 mmHg 81%
09:00 +19°C° 0 mm 2 m/s 757 mmHg 74%
10:00 +21°C° 0 mm 2 m/s 757 mmHg 66%
11:00 +24°C° 0 mm 2 m/s 757 mmHg 59%
12:00 +24°C° 0.1 mm 3 m/s 756 mmHg 59%
13:00 +24°C° 0.1 mm 3 m/s 756 mmHg 59%
14:00 +25°C° 0.1 mm 4 m/s 756 mmHg 59%
15:00 +24°C° 0.2 mm 3 m/s 756 mmHg 62%
16:00 +24°C° 0.2 mm 3 m/s 756 mmHg 65%
17:00 +24°C° 0.2 mm 3 m/s 755 mmHg 67%
18:00 +21°C° 0 mm 2 m/s 755 mmHg 74%
19:00 +19°C° 0 mm 2 m/s 755 mmHg 80%
20:00 +19°C° 0 mm 1 m/s 755 mmHg 86%
21:00 +18°C° 0 mm 1 m/s 755 mmHg 88%
22:00 +16°C° 0 mm 1 m/s 755 mmHg 90%
23:00 +16°C° 0 mm 1 m/s 755 mmHg 92%

16 Agosto, Domingo

Tempo Temperatura Precipitação Vento Pressão Humidade
00:00 +16°C° 0 mm 1 m/s 755 mmHg 94%
01:00 +15°C° 0 mm 1 m/s 756 mmHg 96%
02:00 +15°C° 0 mm 1 m/s 756 mmHg 98%
03:00 +15°C° 0 mm 2 m/s 755 mmHg 98%
04:00 +15°C° 0 mm 2 m/s 755 mmHg 97%
05:00 +15°C° 0 mm 2 m/s 755 mmHg 97%
06:00 +17°C° 0 mm 2 m/s 755 mmHg 91%
07:00 +18°C° 0 mm 2 m/s 755 mmHg 84%
08:00 +20°C° 0 mm 2 m/s 755 mmHg 77%
09:00 +23°C° 0 mm 2 m/s 755 mmHg 68%
10:00 +24°C° 0 mm 3 m/s 755 mmHg 59%
11:00 +26°C° 0 mm 3 m/s 755 mmHg 50%
12:00 +27°C° 0 mm 3 m/s 755 mmHg 49%
13:00 +28°C° 0 mm 3 m/s 755 mmHg 47%
14:00 +28°C° 0 mm 4 m/s 755 mmHg 46%
15:00 +28°C° 0 mm 3 m/s 755 mmHg 50%
16:00 +27°C° 0 mm 3 m/s 755 mmHg 54%
17:00 +27°C° 0 mm 3 m/s 754 mmHg 59%
18:00 +25°C° 0 mm 2 m/s 754 mmHg 64%
19:00 +23°C° 0 mm 2 m/s 754 mmHg 70%
20:00 +20°C° 0 mm 2 m/s 754 mmHg 75%
21:00 +19°C° 0 mm 2 m/s 754 mmHg 78%
22:00 +18°C° 0 mm 2 m/s 754 mmHg 81%
23:00 +17°C° 0 mm 2 m/s 754 mmHg 84%

17 Agosto, Segunda-feira

Tempo Temperatura Precipitação Vento Pressão Humidade
00:00 +17°C° 0 mm 2 m/s 754 mmHg 88%
01:00 +16°C° 0 mm 2 m/s 754 mmHg 91%
02:00 +16°C° 0 mm 2 m/s 754 mmHg 94%
03:00 +15°C° 0 mm 2 m/s 754 mmHg 95%
04:00 +15°C° 0 mm 2 m/s 754 mmHg 97%
05:00 +15°C° 0 mm 2 m/s 754 mmHg 98%
06:00 +17°C° 0 mm 2 m/s 754 mmHg 91%
07:00 +18°C° 0 mm 2 m/s 754 mmHg 85%
08:00 +19°C° 0 mm 3 m/s 754 mmHg 78%
09:00 +21°C° 0 mm 3 m/s 754 mmHg 67%
10:00 +22°C° 0 mm 3 m/s 754 mmHg 56%
11:00 +24°C° 0 mm 3 m/s 754 mmHg 45%
12:00 +25°C° 0 mm 3 m/s 753 mmHg 43%
13:00 +25°C° 0 mm 3 m/s 753 mmHg 40%
14:00 +25°C° 0 mm 3 m/s 753 mmHg 37%
15:00 +25°C° 0 mm 3 m/s 753 mmHg 40%
16:00 +24°C° 0 mm 2 m/s 753 mmHg 43%
17:00 +24°C° 0 mm 2 m/s 752 mmHg 46%
18:00 +21°C° 0 mm 2 m/s 752 mmHg 54%
19:00 +20°C° 0 mm 1 m/s 752 mmHg 61%
20:00 +16°C° 0 mm 1 m/s 752 mmHg 69%
21:00 +16°C° 0 mm 1 m/s 752 mmHg 70%
22:00 +15°C° 0 mm 1 m/s 752 mmHg 72%
23:00 +14°C° 0 mm 0 m/s 752 mmHg 73%

18 Agosto, Terça-feira

Tempo Temperatura Precipitação Vento Pressão Humidade
00:00 +15°C° 0 mm 1 m/s 752 mmHg 72%
01:00 +15°C° 0 mm 1 m/s 751 mmHg 72%
02:00 +15°C° 0 mm 1 m/s 751 mmHg 72%
03:00 +14°C° 0 mm 1 m/s 751 mmHg 73%
04:00 +14°C° 0 mm 1 m/s 750 mmHg 75%
05:00 +13°C° 0 mm 1 m/s 750 mmHg 77%
06:00 +15°C° 0 mm 1 m/s 750 mmHg 71%
07:00 +18°C° 0 mm 1 m/s 750 mmHg 65%
08:00 +20°C° 0 mm 1 m/s 749 mmHg 60%
09:00 +20°C° 0 mm 2 m/s 749 mmHg 55%
10:00 +23°C° 0 mm 2 m/s 749 mmHg 50%
11:00 +25°C° 0 mm 2 m/s 749 mmHg 45%
12:00 +26°C° 0 mm 2 m/s 748 mmHg 45%
13:00 +26°C° 0 mm 2 m/s 748 mmHg 45%
14:00 +27°C° 0 mm 2 m/s 748 mmHg 45%
15:00 +26°C° 0.1 mm 2 m/s 748 mmHg 50%
16:00 +26°C° 0.1 mm 2 m/s 747 mmHg 55%
17:00 +25°C° 0.1 mm 2 m/s 747 mmHg 59%
18:00 +23°C° 0.1 mm 2 m/s 747 mmHg 69%
19:00 +20°C° 0.1 mm 1 m/s 748 mmHg 79%
20:00 +18°C° 0.1 mm 1 m/s 748 mmHg 89%
21:00 +16°C° 0 mm 1 m/s 748 mmHg 89%
22:00 +15°C° 0 mm 1 m/s 748 mmHg 90%
23:00 +14°C° 0 mm 1 m/s 748 mmHg 90%
Mostrar mais